x

Naubinway, Mi (nabm4) Weather Station

1:40pm - Fri 22nd May 2015 All times are CDT. -5 hours from GMT.

  • Wind
    13mph, 18mph gusts
  • Air Temp 54°f
  • Sea Pressure 1023mb
  • Naubinway, Mi
  • Naubinway, Mi

More Historic Weather Station data

Upgrade to MSW Pro to gain access to the past 30 days of data for over 8000 Wavebouys and Weather Stations around the globe.

Join Pro

Comparision Forecast

View Surf forecast
   
Fri 05/22 1:40pm 13 18 mph 1023mb 54f
1:30pm 11 26 mph 1023mb 53f
1:20pm 14 21 mph 1023mb 54f
1:19pm 13 23 mph 1023mb 54f
1:10pm 6 20 mph 1023mb 52f
1:00pm 13 23 mph 1023.4mb 53f
12:40pm 13 18 mph 1023mb 52f
12:30pm 10 20 mph 1023mb 51f
12:20pm 7 23 mph 1023mb 51f
12:19pm 8 23 mph 1023.4mb 51f
12:10pm 14 20 mph 1023.4mb 51f
12:00pm 7 20 mph 1023.4mb 50f
11:40am 11 17 mph 1023mb 50f
11:30am 9 15 mph 1023.4mb 50f
11:20am 13 20 mph 1023.4mb 49f
11:18am 13 22 mph 1023mb 49f
11:10am 11 17 mph 1023mb 48f
11:00am 13 22 mph 1023mb 48f
10:40am 14 21 mph 1023mb 48f
10:30am 13 18 mph 1022.7mb 48f
10:20am 14 20 mph 1022.7mb 47f
10:18am 10 20 mph 1022.7mb 47f
10:10am 11 20 mph 1023mb 47f
10:00am 15 20 mph 1022.7mb 47f
9:40am 10 17 mph 1022.7mb 46f
9:30am 10 16 mph 1022.7mb 45f
9:20am 9 17 mph 1022.7mb 45f
9:17am 14 18 mph 1022.7mb 45f
9:10am 14 17 mph 1022.7mb 45f
9:00am 11 15 mph 1022.7mb 44f
8:40am 13 18 mph 1022.4mb 43f
8:30am 8 15 mph 1022.4mb 43f
8:20am 13 16 mph 1022.4mb 43f
8:17am 9 13 mph 1022.4mb 43f
8:10am 6 13 mph 1022.4mb 42f
8:00am 8 11 mph 1022mb 42f
7:40am 7 11 mph 1022mb 41f
7:30am 8 9 mph 1022mb 41f
7:20am 6 9 mph 1022mb 40f
7:17am 7 9 mph 1022mb 40f
7:10am 7 9 mph 1021.7mb 39f
7:00am 6 8 mph 1021.7mb 39f
6:40am 6 8 mph 1021.3mb 38f
6:30am 7 8 mph 1021.3mb 38f
6:20am 6 9 mph 1021.3mb 38f
6:16am 6 11 mph 1021mb 37f
6:10am 7 9 mph 1021mb 37f
6:00am 7 10 mph 1020.7mb 37f
5:40am 8 11 mph 1020.3mb 36f
5:30am 7 10 mph 1020.3mb 36f
5:20am 8 10 mph 1020mb 36f
5:16am 9 11 mph 1020mb 36f
5:10am 9 11 mph 1020mb 36f
5:00am 8 10 mph 1019.6mb 36f
4:40am 8 10 mph 1019.3mb 36f
4:30am 9 11 mph 1019.3mb 36f
4:20am 8 11 mph 1019mb 36f
4:15am 9 13 mph 1019mb 36f
4:10am 10 11 mph 1019mb 37f
4:00am 8 10 mph 1018.6mb 37f
3:40am 9 11 mph 1018.3mb 37f
3:30am 10 13 mph 1018.3mb 37f
3:20am 10 11 mph 1018.3mb 37f
3:15am 8 11 mph 1018.3mb 37f
3:10am 9 11 mph 1017.9mb 38f
3:00am 9 11 mph 1017.6mb 38f
2:40am 9 11 mph 1017.6mb 38f
2:30am 8 10 mph 1017.6mb 37f
2:20am 7 10 mph 1017.6mb 37f
2:15am 7 10 mph 1017.6mb 38f
2:10am 8 10 mph 1017.6mb 38f
2:00am 8 9 mph 1017.3mb 38f
1:40am 9 10 mph 1017.3mb 38f
1:30am 8 10 mph 1017.3mb 38f
1:20am 8 11 mph 1016.9mb 39f
1:14am 9 11 mph 1016.9mb 39f
1:10am 9 11 mph 1016.9mb 39f
1:00am 8 11 mph 1016.9mb 39f
12:40am 9 11 mph 1016.9mb 39f
12:30am 7 9 mph 1016.6mb 38f
12:20am 8 10 mph 1016.6mb 39f
12:14am 8 10 mph 1016.6mb 40f
12:10am 8 10 mph 1016.6mb 40f
12:00am 7 9 mph 1016.6mb 39f
Thu 05/21 11:40pm 7 9 mph 1016.3mb 39f
11:30pm 7 9 mph 1016.3mb 40f
11:20pm 7 10 mph 1016.3mb 40f
11:13pm 7 10 mph 1016.3mb 40f
11:10pm 6 9 mph 1016.3mb 40f
11:00pm 7 9 mph 1016.3mb 40f
10:40pm 6 8 mph 1015.9mb 41f
10:30pm 5 7 mph 1015.9mb 41f
10:20pm 5 8 mph 1015.9mb 42f
10:13pm 7 9 mph 1015.6mb 43f
10:10pm 7 9 mph 1015.6mb 43f
10:00pm 3 5 mph 1015.6mb 42f
9:40pm 3 8 mph 1015.6mb 44f
9:30pm 6 8 mph 1015.6mb 45f
9:20pm 5 7 mph 1015.2mb 45f
9:13pm 2 11 mph 1015.2mb 46f
9:10pm 3 7 mph 1015.2mb 46f
9:00pm 6 8 mph 1015.2mb 46f
8:40pm 7 9 mph 1014.9mb 48f
8:30pm 7 11 mph 1014.9mb 48f
8:20pm 7 15 mph 1014.9mb 49f
8:12pm 10 23 mph 1014.6mb 49f
8:10pm 9 14 mph 1014.6mb 49f
8:00pm 9 14 mph 1014.6mb 50f
7:40pm 9 18 mph 1014.2mb 51f
7:30pm 7 23 mph 1014.2mb 52f
7:20pm 15 21 mph 1013.9mb 52f
7:12pm 11 24 mph 1013.9mb 53f
7:10pm 13 22 mph 1013.9mb 53f
7:00pm 17 23 mph 1013.5mb 53f
6:40pm 11 21 mph 1013.9mb 54f
6:30pm 15 24 mph 1013.5mb 54f
6:20pm 15 23 mph 1013.5mb 54f
6:11pm 13 18 mph 1013.5mb 54f
6:10pm 13 23 mph 1013.5mb 54f
6:00pm 16 22 mph 1013.5mb 54f
5:40pm 15 24 mph 1013.5mb 54f
5:30pm 18 26 mph 1013.5mb 55f
5:20pm 14 29 mph 1013.5mb 55f
5:11pm 22
mph
1013.2mb 55f
5:10pm 22 29 mph 1013.2mb 55f
5:00pm 17 25 mph 1013.2mb 55f
4:40pm 16 26 mph 1012.9mb 55f
4:30pm 15 28 mph 1013.2mb 55f
4:20pm 16 26 mph 1012.9mb 55f
4:11pm 16 28 mph 1012.9mb 55f
4:10pm 16 25 mph 1012.9mb 55f
4:00pm 16 24 mph 1012.5mb 55f
3:40pm 20 26 mph 1012.5mb 55f
3:30pm 20 25 mph 1012.5mb 56f
3:20pm 17 25 mph 1012.5mb 56f
3:10pm 16 25 mph 1012.5mb 57f
3:00pm 18 24 mph 1012.2mb 57f
2:40pm 14 25 mph 1011.9mb 58f
2:30pm 14 22 mph 1011.9mb 59f
2:20pm 14 25 mph 1011.9mb 59f
2:10pm 13 26 mph 1011.5mb 59f
2:00pm 11 26 mph 1011.5mb 59f
1:50pm 11 26 mph 1011.5mb 59f
1:40pm 15 25 mph 1011.5mb 59f
1:30pm 14 23 mph 1011.2mb 60f
1:20pm 13 23 mph 1011.2mb 60f
1:10pm 16 21 mph 1011.2mb 60f
1:09pm 15 21 mph 1011.2mb 60f
1:00pm 7 14 mph 1011.2mb 54f
12:50pm 9 14 mph 1011.2mb 52f
12:40pm 11 13 mph 1011.2mb 56f
12:30pm 6 9 mph 1011.2mb 60f
12:20pm 9 14 mph 1011.5mb 58f
12:10pm 6 16 mph 1011.5mb 58f
12:09pm 9 20 mph 1011.5mb 58f
12:00pm 10 20 mph 1011.5mb 58f
11:50am 11 16 mph 1011.5mb 58f
11:40am 10 15 mph 1011.2mb 58f
11:30am 9 16 mph 1011.2mb 58f
11:20am 6 14 mph 1011.2mb 58f
11:10am 10 15 mph 1011.2mb 58f
11:08am 9 15 mph 1011.2mb 57f
11:00am 8 11 mph 1011.2mb 54f
10:50am 6 13 mph 1011.2mb 49f
10:40am 11 15 mph 1011.2mb 48f
10:30am 10 13 mph 1010.8mb 47f
10:20am 8 10 mph 1011.2mb 47f
10:10am 8 10 mph 1011.2mb 47f
10:08am 8 10 mph 1011.2mb 47f
10:00am 8 9 mph 1011.5mb 47f
9:50am 8 9 mph 1011.5mb 46f
9:40am 7 9 mph 1011.5mb 46f
9:30am 7 8 mph 1011.5mb 46f
9:20am 7 8 mph 1011.5mb 46f
9:10am 6 9 mph 1011.9mb 46f
9:08am 8 9 mph 1011.9mb 46f
9:00am 7 8 mph 1011.5mb 46f
8:50am 5 6 mph 1011.5mb 46f
8:40am 3 5 mph 1011.5mb 46f
8:30am 5 6 mph 1011.9mb 45f
8:20am 5 7 mph 1011.9mb 45f
8:10am 5 6 mph 1011.9mb 45f
8:07am 3 6 mph 1011.9mb 45f
8:00am 3 5 mph 1011.9mb 45f
7:50am 3 5 mph 1011.9mb 45f
7:40am 5 6 mph - 44f
7:30am 2 6 mph 1011.9mb 45f
7:20am 5
mph
1012.2mb 45f
7:10am 3 5 mph 1012.2mb 45f
7:07am 3 8 mph 1012.2mb 44f
7:00am 5 7 mph 1012.2mb 44f
6:50am 5 7 mph 1012.2mb 44f
6:40am 7 8 mph 1012.2mb 44f
6:30am 3 8 mph 1012.2mb 44f
6:20am 7 8 mph 1011.9mb 43f
6:10am 7 8 mph 1011.9mb 43f
6:06am 7 8 mph 1011.9mb 43f
6:00am 6 7 mph 1012.2mb 43f
5:50am 6 7 mph 1012.2mb 43f
5:40am 6 7 mph 1012.2mb 42f
5:30am 6 7 mph 1012.2mb 42f
5:20am 5 7 mph 1012.2mb 37f
5:10am 2
mph
1012.5mb 37f
5:06am 1 5 mph 1012.5mb 37f
5:00am 1 5 mph 1012.5mb 37f
4:50am  -  2 mph 1012.5mb 36f
4:40am 1 3 mph 1012.5mb 36f
4:30am 2 3 mph 1012.9mb 37f
4:20am  -  2 mph 1012.9mb 37f
4:10am  -  2 mph 1012.9mb 36f
4:06am 1 7 mph 1012.9mb 36f
4:00am 2 3 mph 1012.9mb 37f
3:50am  -  3 mph 1012.9mb 37f
3:40am 1 5 mph 1012.9mb 38f
3:30am 1 5 mph 1012.9mb 39f
3:20am 5 7 mph 1013.2mb 39f
3:10am 1 3 mph 1013.5mb 37f
3:05am 2 3 mph 1013.5mb 37f
3:00am 2 3 mph 1013.5mb 37f
2:50am  -  3 mph 1013.5mb 38f
2:40am 1 3 mph 1013.5mb 39f
2:30am 1 2 mph 1013.9mb 38f
2:20am 1 3 mph 1013.9mb 38f
2:10am 2 3 mph 1013.9mb 39f
2:05am 2 13 mph 1013.9mb 40f
2:00am 1 2 mph 1013.9mb 40f
1:50am 2 3 mph 1014.2mb 40f
1:40am 3 6 mph 1014.2mb 42f
1:30am 6 13 mph 1014.2mb 42f
1:20am 7 11 mph 1014.2mb 43f
1:10am 6 13 mph 1014.2mb 43f
1:04am 10 14 mph 1014.6mb 43f
1:00am 10 14 mph 1014.6mb 43f
12:50am 8 14 mph 1014.6mb 43f
12:40am 8 13 mph 1014.6mb 44f
12:30am 9 13 mph 1014.6mb 44f
12:20am 7 13 mph 1014.9mb 44f
12:10am 7 13 mph 1014.9mb 44f
12:04am 7 15 mph 1014.9mb 44f
12:00am 7 11 mph 1014.9mb 44f
Wed 05/20 11:50pm 7 11 mph 1014.9mb 44f
11:40pm 7 15 mph 1014.9mb 44f
11:30pm 10 15 mph 1015.2mb 44f
11:20pm 11 14 mph 1014.9mb 44f
11:10pm 10 15 mph 1015.2mb 44f
11:04pm 10 18 mph 1015.6mb 44f
11:00pm 9 15 mph 1015.6mb 44f
10:50pm 9 14 mph 1015.6mb 45f
10:40pm 7 15 mph 1015.6mb 45f
10:30pm 10 17 mph 1015.6mb 45f
10:20pm 13 18 mph 1015.9mb 45f
10:10pm 9 18 mph 1015.9mb 46f
10:03pm 13 17 mph 1015.9mb 46f
10:00pm 13 17 mph 1015.9mb 46f
9:50pm 13 17 mph 1015.9mb 46f
9:40pm 11 17 mph 1015.9mb 47f
9:30pm 9 14 mph 1016.3mb 47f
9:20pm 7 13 mph 1016.3mb 47f
9:10pm 6 10 mph 1016.6mb 47f
9:03pm 6 17 mph 1016.6mb 46f
9:00pm 8 14 mph 1016.6mb 46f
8:50pm 7 15 mph 1016.6mb 46f
8:40pm 7 17 mph 1016.6mb 47f
8:30pm 8 15 mph 1016.6mb 47f
8:20pm 10 16 mph 1016.9mb 47f
8:10pm 10 15 mph 1016.9mb 47f
8:02pm 7 15 mph 1016.9mb 47f
8:00pm 8 14 mph 1016.9mb 47f
7:50pm 8 11 mph 1016.9mb 47f
7:40pm 7 14 mph 1016.9mb 47f
7:30pm 6 11 mph 1017.3mb 47f
7:20pm 8 15 mph 1017.3mb 47f
7:10pm 9 14 mph 1017.3mb 47f
7:02pm 7 14 mph 1017.3mb 47f
7:00pm 7 14 mph 1017.3mb 47f
6:50pm 8 13 mph 1017.3mb 48f
6:40pm 6 11 mph 1017.3mb 48f
6:30pm 7 13 mph 1017.6mb 48f
6:20pm 8 13 mph 1017.9mb 48f
6:10pm 8 14 mph 1017.9mb 48f
6:02pm 6 21 mph 1017.9mb 47f
6:00pm 7 15 mph 1017.9mb 47f
5:50pm 13 17 mph 1017.9mb 46f
5:40pm 11 17 mph 1017.9mb 46f
5:30pm 11 20 mph 1018.3mb 47f
5:20pm 13 21 mph 1018.3mb 47f
5:10pm 11 17 mph 1017.9mb 46f
5:01pm 13 28 mph 1017.9mb 46f
5:00pm 13 21 mph 1017.9mb 46f
4:50pm 11 21 mph 1017.9mb 46f
4:40pm 11 22 mph 1018.3mb 46f
4:30pm 14 24 mph 1018.3mb 47f
4:20pm 22 26 mph 1018.3mb 46f
4:10pm 21 28 mph 1018.3mb 46f
4:01pm 22 28 mph 1018.3mb 47f
4:00pm 22 26 mph 1018.3mb 47f
3:50pm 17 22 mph 1018.6mb 46f
3:40pm 15 22 mph 1018.6mb 46f
3:30pm 20 26 mph 1018.6mb 45f
3:20pm 17 24 mph 1018.6mb 45f
3:10pm 18 28 mph 1019.3mb 45f
3:00pm 22 25 mph 1019.3mb 44f
2:50pm 18 24 mph 1019.6mb 44f
2:40pm 21 28 mph 1019.6mb 44f
2:30pm 22 25 mph 1019.6mb 44f
2:20pm 20 23 mph 1019.3mb 44f
2:10pm 15 18 mph 1019.3mb 45f
2:00pm 16 20 mph 1019.3mb 45f
1:50pm 18 24 mph 1019.6mb 45f
1:40pm 20 25 mph 1020mb 45f
1:30pm 23 25 mph 1020mb 45f
1:20pm 22 26 mph 1020mb 45f
1:10pm 22 24 mph 1020mb 45f
1:00pm 20 25 mph 1020mb 45f
12:50pm 22 25 mph 1020.3mb 45f
12:40pm 21 24 mph 1020.3mb 45f
12:30pm 21 24 mph 1020.3mb 45f
12:20pm 21 24 mph 1020.3mb 44f
12:10pm 20 24 mph 1020.7mb 44f
12:00pm 20 22 mph 1020.3mb 44f
11:50am 20 22 mph 1020.3mb 45f
11:40am 20 22 mph 1020.3mb 44f
11:30am 18 20 mph 1020.7mb 44f
11:20am 16 18 mph 1020.7mb 45f
11:10am 15 17 mph 1020.7mb 45f
11:00am 15 16 mph 1020.7mb 45f
10:50am 14 16 mph 1020.7mb 46f
10:40am 13 15 mph 1020.7mb 47f
10:30am 11 14 mph 1020.7mb 47f
10:20am 13 15 mph 1021mb 47f
10:10am 13 14 mph 1021mb 46f
10:00am 11 14 mph 1021mb 46f
9:50am 11 14 mph 1021mb 46f
9:40am 14 15 mph 1021mb 46f
9:30am 13 14 mph 1021.3mb 46f
9:20am 13 14 mph 1021.3mb 45f
9:10am 13 15 mph 1021mb 44f
9:00am 11 14 mph 1021.3mb 44f
8:50am 10 13 mph 1021mb 44f
8:40am 11 14 mph 1021.3mb 44f
8:30am 8 11 mph 1021.3mb 44f
8:20am 7 11 mph 1021.3mb 45f
8:10am 3 8 mph 1021.3mb 44f
8:00am 5 8 mph 1021.3mb 43f
7:50am 5 9 mph 1021.3mb 42f
7:40am 6 9 mph 1021.3mb 42f
7:30am 5 8 mph 1021.3mb 41f
7:20am 5 9 mph 1021.3mb 40f
7:10am 6 9 mph 1021.3mb 40f
7:00am 5 8 mph 1021.3mb 39f
6:50am 6 8 mph 1021.3mb 38f
6:40am 6 8 mph 1021.3mb 36f
6:30am 5 6 mph 1021.3mb 35f
6:20am 5 7 mph 1021.3mb 35f
6:10am 3 7 mph 1021.3mb 34f
6:00am 3 7 mph 1021.3mb 33f
5:50am 5 7 mph 1021.3mb 33f
5:40am 3
mph
1021.3mb 33f
5:30am 2 6 mph 1021mb 32f
5:20am 3 7 mph 1021mb 31f
5:19am 3 9 mph 1021mb 31f
5:10am 5 6 mph 1021mb 31f
5:00am 3 8 mph 1021mb 32f
4:50am 6 9 mph 1021mb 33f
4:40am 7 9 mph 1021mb 33f
4:30am 6 9 mph 1021mb 34f
4:20am 5 6 mph 1021mb 33f
4:19am 5 11 mph 1021mb 33f
4:10am 6 8 mph 1021mb 33f
4:00am 7 9 mph 1021mb 33f
3:50am 6 9 mph 1021mb 33f
3:40am 7 8 mph 1021mb 33f
3:30am 7 11 mph 1021mb 33f
3:20am 7 10 mph 1021.3mb 33f
3:18am 8 10 mph 1021.3mb 33f
3:10am 8 10 mph 1021.3mb 33f
3:00am 7 9 mph 1021.3mb 32f
2:50am 7 9 mph 1021.3mb 32f
2:40am 7 8 mph 1021.7mb 32f
2:30am 6 8 mph 1021.7mb 32f
2:20am 6 8 mph 1021.7mb 32f
2:18am 6 8 mph 1021.7mb 32f
2:10am 7 8 mph 1021.7mb 33f
2:00am 6 7 mph 1021.7mb 33f
1:50am 6 7 mph 1022mb 33f
1:40am 6 8 mph 1022mb 33f
1:30am 6 8 mph 1022mb 33f
1:20am 5 7 mph 1022mb 32f
1:18am 5 9 mph 1022mb 32f
1:10am 5 7 mph 1022mb 32f
1:00am 6 9 mph 1022.4mb 32f
12:50am 6 9 mph 1022.4mb 32f
12:40am 6 9 mph 1022.4mb 33f
12:30am 7 9 mph 1022.7mb 33f
12:20am 7 9 mph 1022.4mb 33f
12:17am 6 9 mph 1022.4mb 33f
12:10am 6 9 mph 1022.4mb 33f
12:00am 5 8 mph 1022.4mb 32f
Tue 05/19 11:50pm 6 7 mph 1022.7mb 32f
11:40pm 6 8 mph 1022.7mb 32f
11:30pm 6 7 mph 1023mb 32f
11:20pm 5 7 mph 1023mb 32f
11:17pm 2 7 mph 1022.7mb 32f
11:10pm 3 6 mph 1023mb 33f
11:00pm 3 6 mph 1023mb 32f
10:50pm 3 7 mph 1023mb 32f
10:40pm 5 7 mph 1023mb 32f
10:30pm 3 6 mph 1023mb 32f
10:20pm 3 6 mph 1023mb 33f
10:16pm 3 9 mph 1023mb 33f
10:10pm 3 7 mph 1023mb 33f
10:00pm 6 8 mph 1023mb 33f
9:50pm 6 9 mph 1023mb 33f
9:40pm 7 9 mph 1022.7mb 33f
9:30pm 7 9 mph 1022.7mb 33f
9:20pm 7 8 mph 1022.7mb 34f
9:16pm 7 10 mph 1022.7mb 34f
9:10pm 6 7 mph 1022.4mb 34f
9:00pm 6 8 mph 1022.4mb 35f
8:50pm 6 8 mph 1022.4mb 35f
8:40pm 6 8 mph 1022.4mb 35f
8:30pm 7 10 mph 1022mb 36f
8:20pm 7 10 mph 1022mb 37f
8:16pm 8 20 mph 1022mb 37f
8:10pm 7 14 mph 1022mb 37f
8:00pm 8 15 mph 1021.7mb 37f
7:50pm 9 18 mph 1021.7mb 38f
7:40pm 13 20 mph 1021.3mb 38f
7:30pm 14 20 mph 1021.7mb 37f
7:20pm 8 15 mph 1021.7mb 37f
7:15pm 11 23 mph 1021.7mb 37f
7:10pm 10 16 mph 1021.7mb 37f
7:00pm 11 18 mph 1021.3mb 37f
6:50pm 11 23 mph 1021.3mb 37f
6:40pm 15 20 mph 1021.3mb 37f
6:30pm 11 20 mph 1021.3mb 36f
6:20pm 16 23 mph 1021.3mb 37f
6:15pm 11 25 mph 1021mb 37f
6:10pm 14 20 mph 1021mb 37f
6:00pm 16 25 mph 1020.7mb 37f
5:50pm 16 25 mph 1020mb 37f
5:40pm 14 23 mph 1020.7mb 36f
5:30pm 16 24 mph 1020.7mb 36f
5:20pm 21 28 mph 1020.3mb 37f
5:14pm 14
mph
1020.3mb 37f
5:10pm 17 28 mph 1020mb 37f
5:00pm 20 25 mph 1020mb 37f
4:50pm 16 29 mph 1020.3mb 37f
4:40pm 18 31 mph 1020mb 39f
4:30pm 28 40 mph 1020mb 38f
4:28pm 24 40 mph 1019.3mb 38f
4:20pm 17 30 mph 1020.3mb 38f
4:10pm 16 25 mph 1020.3mb 39f
4:00pm 18 26 mph 1020mb 39f
3:50pm 18 32 mph 1020mb 38f
3:40pm 18 29 mph 1020mb 39f
3:30pm 21 29 mph 1019.6mb 39f
3:22pm 20 29 mph 1019.6mb 39f
3:20pm 16 24 mph 1019.6mb 39f
3:13pm 15 24 mph 1020mb 38f
3:10pm 17 24 mph 1020mb 38f
3:00pm 21 32 mph 1020.3mb 37f
2:50pm 21 28 mph 1020mb 38f
2:40pm 17 25 mph 1020.7mb 39f
2:30pm 18 25 mph 1020.3mb 38f
2:20pm 21 32 mph 1021.3mb 38f
2:13pm 18
mph
1021.7mb 38f
2:10pm 16 29 mph 1021.7mb 38f
2:00pm 20 29 mph 1021.3mb 38f
1:50pm 18 28 mph 1020.7mb 38f
1:40pm 20 25 mph 1021mb 38f
1:30pm 20 28 mph 1020.7mb 37f
1:20pm 17 24 mph 1020.3mb 37f
1:13pm 17 24 mph 1020.3mb 38f
1:10pm 15 20 mph 1020.3mb 38f
1:00pm 14 21 mph 1020.3mb 37f
12:50pm 15 23 mph 1020mb 37f
12:40pm 13 24 mph 1020mb 37f
12:30pm 16 23 mph 1020.3mb 37f
12:20pm 17 22 mph 1020mb 36f
12:12pm 15 24 mph 1019.6mb 37f
12:10pm 14 24 mph 1020mb 37f
12:00pm 14 24 mph 1019.6mb 37f
11:50am 17 24 mph 1019.6mb 37f
11:40am 17 24 mph 1019.3mb 37f
11:30am 16 24 mph 1019mb 37f
11:20am 11 21 mph 1019mb 38f
11:10am 15 25 mph 1019mb 37f
11:00am 18 23 mph 1018.6mb 37f
10:50am 16 24 mph 1018.6mb 37f
10:40am 10 22 mph 1018.6mb 38f
10:30am 17 23 mph 1018.3mb 38f
10:20am 17 24 mph 1018.3mb 37f
10:11am 15 28 mph 1018.3mb 38f
10:10am 15 23 mph 1018.3mb 38f
10:00am 13 25 mph 1018.3mb 37f
9:50am 17 24 mph 1017.9mb 37f
9:40am 20 25 mph 1018.3mb 37f
9:30am 17 24 mph 1017.9mb 37f
9:20am 20 28 mph 1017.9mb 38f
9:11am 17 28 mph 1017.9mb 37f
9:10am 17 25 mph 1017.9mb 37f
9:00am 17 23 mph 1017.9mb 37f
8:50am 16 28 mph 1017.9mb 37f
8:40am 9 23 mph 1017.9mb 37f
8:30am 16 23 mph 1017.9mb 37f
8:20am 11 28 mph 1017.9mb 37f
8:11am 18 23 mph 1017.6mb 37f
8:10am 18 23 mph 1017.6mb 37f
8:00am 11 18 mph 1017.6mb 37f
7:50am 14 18 mph 1017.6mb 37f
7:40am 17 23 mph 1017.3mb 37f
7:30am 15 22 mph 1017.6mb 36f
7:20am 11 21 mph 1017.3mb 36f
7:10am 13 23 mph 1016.9mb 36f
7:00am 14 21 mph 1016.9mb 36f
6:50am 17 24 mph 1016.6mb 36f
6:40am 15 22 mph 1016.6mb 36f
6:30am 17 25 mph 1016.3mb 36f
6:20am 15 25 mph 1016.3mb 36f
6:10am 10 23 mph 1016.3mb 36f
6:00am 16 24 mph 1015.9mb 36f
5:50am 13 23 mph 1015.9mb 36f
5:40am 15 23 mph 1015.9mb 36f
5:30am 15 22 mph 1015.9mb 36f
5:20am 14 21 mph 1015.9mb 36f
5:10am 9 20 mph 1015.6mb 37f
5:09am 13 24 mph 1015.9mb 36f
5:00am 16 22 mph 1015.6mb 37f
4:50am 15 21 mph 1015.6mb 37f
4:40am 14 24 mph 1015.9mb 37f
4:30am 14 21 mph 1015.9mb 36f
4:20am 11 21 mph 1015.6mb 37f
4:10am 16 25 mph 1015.6mb 37f
4:09am 14 25 mph 1015.6mb 37f
4:00am 11 22 mph 1015.6mb 37f
3:50am 13 21 mph 1015.6mb 38f
3:40am 13 20 mph 1015.6mb 38f
3:30am 11 17 mph 1015.2mb 38f
3:20am 11 23 mph 1015.2mb 39f
3:10am 14 23 mph 1015.2mb 39f
3:08am 15 24 mph 1015.2mb 40f
3:00am 14 24 mph 1015.2mb 40f
2:50am 17 24 mph 1015.2mb 40f
2:40am 13 21 mph 1015.2mb 41f
2:30am 9 17 mph 1015.2mb 42f
2:20am 8 18 mph 1015.2mb 42f
2:10am 13 18 mph 1015.2mb 42f
2:08am 14 18 mph 1015.2mb 42f
2:00am 13 18 mph 1015.2mb 43f
1:50am 11 18 mph 1015.2mb 44f
1:40am 11 18 mph 1015.2mb 44f
1:30am 10 16 mph 1014.9mb 44f
1:20am 10 17 mph 1014.9mb 44f
1:10am 9 14 mph 1014.9mb 45f
1:08am 7 16 mph 1014.9mb 45f
1:00am 10 16 mph 1014.9mb 45f
12:50am 6 11 mph 1014.9mb 45f
12:40am 9 14 mph 1014.6mb 45f
12:30am 9 14 mph 1014.9mb 45f
12:20am 6 8 mph 1014.6mb 45f
12:10am 5 7 mph 1014.9mb 45f
12:07am 5 7 mph 1014.9mb 45f
12:00am 5 7 mph 1014.9mb 45f
Mon 05/18 11:50pm 5 7 mph 1014.9mb 45f
11:40pm 5 7 mph 1014.9mb 45f
11:30pm 5 7 mph 1014.9mb 45f
11:20pm 2 7 mph 1014.9mb 45f
11:10pm 5 6 mph 1014.9mb 45f
11:07pm 3 9 mph 1014.9mb 45f
11:00pm 2 5 mph 1014.9mb 45f
10:50pm 2 7 mph 1014.9mb 45f
10:40pm 7 9 mph 1014.9mb 45f
10:30pm 7 8 mph 1014.9mb 45f
10:20pm 5 9 mph 1014.9mb 45f
10:10pm 6 9 mph 1014.6mb 45f
10:06pm 5 16 mph 1014.6mb 45f
10:00pm 6 9 mph 1014.6mb 45f
9:50pm 8 13 mph 1014.6mb 46f
9:40pm 7 13 mph 1014.6mb 46f
9:30pm 7 11 mph 1014.6mb 46f
9:20pm 9 16 mph 1014.6mb 46f
9:10pm 11 16 mph 1014.2mb 46f
9:06pm 13 20 mph 1014.2mb 46f
9:00pm 10 17 mph 1014.2mb 46f
8:50pm 8 11 mph 1014.2mb 46f
8:40pm 8 17 mph 1014.2mb 46f
8:30pm 11 16 mph 1014.2mb 47f
8:20pm 13 20 mph 1013.9mb 47f
8:10pm 16 18 mph 1013.9mb 47f
8:06pm 14 21 mph 1013.9mb 47f
8:00pm 13 21 mph 1013.9mb 47f
7:50pm 13 18 mph 1013.5mb 48f